Flag for United Kingdom Weather past 2 weeks in Ely, England, United Kingdom

Now
55 °F

Clear.


Feels Like: 54 °F
Forecast: 50 / 69 °F
Wind: 7 mph from Southwest

Location: Mildenhall Royal Air Force Base

Current Time: Aug 27, 2015 at 11:15:45 PM

Latest Report: Aug 27, 2015 at 9:58 PM


Visibility: N/A

Pressure: 29.80 "Hg

Humidity: 87%

Dew point: 52 °F

Location of ElyLocation

Historic Weather in Ely — Graph

°F

Ely temperature yesterday

Maximum temperature yesterday: 67 °F (at 5:58 PM)
Minimum temperature yesterday: 57 °F (at 11:58 PM)
Average temperature yesterday: 63 °F

Past Weeks' High & Low Weather Summary

 TemperatureHumidityPressure
High84 °F (Aug 22, 2:58 PM)100% (Aug 13, 4:03 AM)30.22 "Hg (Aug 13, 4:03 AM)
Low44 °F (Aug 17, 5:58 AM)40% (Aug 17, 1:58 PM)29.45 "Hg (Aug 24, 4:58 PM)
Average63 °F82%29.86 "Hg
* Reported Aug 12 9:58 PM — Aug 27 9:58 PM, Ely, Weather by CustomWeather, © 2015

Note: Actual official high and low records may vary slightly from our data, if they occured in-between our weather recording intervals... More about our weather records

Advertising

Ely weather history for previous 24 hours

 ConditionsComfort  
Time TempWeatherWind HumidityBarometerVisibility
9:58 PM
Thu, Aug 27
55 °FClear.7 mph87%29.80 "HgN/A
8:58 PM58 °FOvercast.5 mph83%29.78 "HgN/A
7:58 PM59 °FSunny.7 mph85%29.75 "HgN/A
6:58 PM62 °FPartly sunny.14 mph72%29.74 "HgN/A
5:58 PM66 °FScattered clouds.9 mph52%29.72 "HgN/A
4:58 PM67 °FPassing clouds.12 mph51%29.72 "HgN/A
3:59 PM66 °FLight rain. Broken clouds.15 mph56%29.69 "HgN/A
2:58 PM68 °FPassing clouds.16 mph56%29.70 "HgN/A
2:00 PM66 °FLight rain. Broken clouds.20 mph60%29.68 "HgN/A
1:58 PM66 °FBroken clouds.14 mph59%29.69 "HgN/A
12:58 PM66 °FBroken clouds.16 mph60%29.68 "HgN/A
11:58 AM64 °FPartly sunny.15 mph73%29.68 "HgN/A
10:58 AM61 °FScattered clouds.15 mph87%29.68 "HgN/A
10:01 AM61 °FSunny.13 mph88%29.66 "HgN/A
8:58 AM59 °FMostly cloudy.10 mph89%29.67 "HgN/A
7:58 AM58 °FScattered clouds.13 mph92%29.67 "HgN/A
6:58 AM55 °FClear.9 mph94%29.66 "HgN/A
5:58 AM56 °FClear.12 mph95%29.65 "HgN/A
4:58 AM56 °FPassing clouds.12 mph96%29.64 "HgN/A
3:58 AM56 °FPassing clouds.12 mph95%29.65 "HgN/A
2:58 AM56 °FClear.10 mph95%29.64 "HgN/A
1:58 AM56 °FClear.10 mph94%29.64 "HgN/A
12:58 AM57 °FPassing clouds.10 mph94%29.63 "HgN/A
11:58 PM
Wed, Aug 26
57 °FClear.8 mph91%29.64 "HgN/A
Weather by CustomWeather, © 2015

See weather overviewHow to use our weather pages